Regional Weather Roundup
Issued by NWS

Home | Current Version | Previous Version | Text Only | Print | Product List | Glossary On
Versions: 1 2 3 4 5 6 7 8 9 10 11 12 13 14 15 16 17 18 19 20 21 22 23 24 25 26 27 28 29 30 31 32 33 34 35 36 37 38 39 40 41 42 43 44 45 46 47 48 49 50
913
ASUS43 KMKX 211121
RWRWI

WISCONSIN REGIONAL WEATHER ROUNDUP
NATIONAL WEATHER SERVICE MILWAUKEE/SULLIVAN WI
600 AM CDT FRI JUL 21 2017

NOTE: "FAIR" INDICATES FEW OR NO CLOUDS BELOW 12,000 FEET WITH NO
SIGNIFICANT WEATHER AND/OR OBSTRUCTIONS TO VISIBILITY.

WIZ001-002-006>008-014>016-023>028-211200-
NORTHWEST WISCONSIN

CITY           SKY/WX    TMP DP  RH WIND       PRES   REMARKS
SUPERIOR ARPT  NOT AVBL
ASHLAND        PTCLDY    58  58 100 CALM      29.93F
HAYWARD        PTCLDY    59  58  96 CALM      29.96S
SIREN          CLOUDY    64  62  94 CALM      29.94F
CUMBERLAND     CLOUDY    61  61 100 CALM      29.96F FOG
RICE LAKE      CLOUDY    62  61  97 CALM      29.97F FOG
CHETEK         CLOUDY    64  64 100 E5        29.96F FOG
LADYSMITH      PTCLDY    62  61  97 CALM      30.00R FOG
EAU CLAIRE     FOG       62  62 100 CALM      29.93F VSB 1/4
MENOMONIE      FOG       64  64  99 CALM      29.94F VSB<1/4
NEW RICHMOND   MOCLDY    64  64  99 E5        29.94S FOG
OSCEOLA        CLOUDY    66  66 100 E3        29.95F FOG
$$

WIZ003>005-009-010-017-018-211200-
NORTH CENTRAL WISCONSIN

CITY           SKY/WX    TMP DP  RH WIND       PRES   REMARKS
MANITOWISH WTR CLEAR     55  55 100 CALM      29.98F FOG
ARBOR VITAE    CLEAR     60  59  96 CALM      29.99R
WOODRUFF       CLEAR     60  59  96 CALM      29.99R
RHINELANDER    CLEAR     62  62 100 SW3       30.01R
EAGLE RIVER    CLEAR     56  56 100 CALM      29.99F FOG
LAND O LAKES   CLEAR     54  54 100 CALM      30.00F FOG
PHILLIPS       CLOUDY    60  60 100 CALM      29.98S
TOMAHAWK         N/A     57  56  97 CALM      30.01S FOG
MEDFORD        FOG       60  60  99 S6        30.00R VSB 1/2
MERRILL        CLEAR     55  55 100 CALM      30.01S FOG
$$

WIZ029-030-035-036-043>047-211200-
CENTRAL WISCONSIN

CITY           SKY/WX    TMP DP  RH WIND       PRES   REMARKS
WAUSAU         FOG       63  63 100 CALM      29.98F VSB 1
MOSINEE        FOG       63  63 100 S3        30.01F VSB 1/8
MARSHFIELD     CLOUDY    62  61  96 CALM      29.98F FOG
STEVENS POINT  CLOUDY    58  58 100 NE3       30.01F FOG
WAUPACA          N/A     64  63  97 CALM      30.00F FOG
WAUTOMA        CLOUDY    62  61  96 CALM      30.00F
WISC RAPIDS    FOG       62  62 100 CALM      29.99F VSB 1
CAMP DOUGLAS   FOG       61  61 100 SE3       29.96F VSB 1/2
$$

WIZ011>013-019>022-031-037>040-048>050-211200-
NORTHEAST WISCONSIN

CITY           SKY/WX    TMP DP  RH WIND       PRES   REMARKS
ANTIGO         CLEAR     57  56  99 CALM      30.02F
SHAWANO        PTCLDY    63  61  94 CALM      29.99F
OCONTO         PTCLDY    59  58  94 CALM      29.99S
STURGEON BAY     N/A     64  63  96 CALM      30.00R
GREEN BAY      CLOUDY    64  64 100 SW3       30.00R
MANITOWOC      CLOUDY    66  64  93 CALM      30.00S
APPLETON       MOCLDY    64  64 100 VRB5      30.00S
CLINTONVILLE   MOCLDY    61  61 100 CALM      30.00F
OSHKOSH        CLOUDY    68  65  90 CALM      29.99F
$$

WIZ032>034-041-042-053>061-211200-
SOUTHWEST WISCONSIN

CITY           SKY/WX    TMP DP  RH WIND       PRES   REMARKS
LA CROSSE      CLOUDY    68  66  93 W3        29.93F
SPARTA         CLOUDY    58  58 100 CALM      29.96F
VIROQUA        CLOUDY    66  66 100 E6        29.97F
BOSCOBEL       FOG       69  68  96 CALM      29.95F VSB 1/2
PRAIRIE DU CHI CLOUDY    69  67  94 CALM      29.93F
PLATTEVILLE    CLOUDY    71  71 100 E6        29.97S
$$

WIZ056-057-062-063-064-067-068-211200-
SOUTH CENTRAL WISCONSIN

CITY           SKY/WX    TMP DP  RH WIND       PRES   REMARKS
REEDSBURG      FOG       64  64 100 CALM      29.97F VSB 1/4
BARABOO/DELLS  MOCLDY    65  64  96 NE5       29.98F FOG
LONE ROCK      FOG       68  67  96 SE5       29.96F VSB<1/4
MINERAL POINT  CLOUDY    72  70  94 E6        29.98S
MADISON        CLOUDY    66  65  96 CALM      29.98S
MIDDLETON        N/A     65  65 100 CALM      29.99F
WATERTOWN      MOCLDY    66  66 100 NE3       29.99F
MONROE         CLOUDY    70  68  94 E5        29.97F
JANESVILLE     CLOUDY    72  72 100 CALM      29.97F
$$

WIZ051-052-058>065-066-070>072-211200-
SOUTHEAST WISCONSIN

CITY           SKY/WX    TMP DP  RH WIND       PRES   REMARKS
MILWAUKEE      CLOUDY    72  69  90 N5        29.99S
WAUKESHA       FOG       68  68 100 CALM      30.01F VSB 1/2
MILWAUKEE/TIMM CLOUDY    68  64  88 CALM      30.01S
RACINE         CLOUDY    68  68 100 CALM      30.01S FOG
KENOSHA        CLOUDY    70  68  93 S8        30.02R
FOND DU LAC    CLOUDY    66  63  90 S5        30.01S FOG
SHEBOYGAN      CLOUDY    65  65 100 CALM      30.00S FOG
WEST BEND      CLOUDY    64  64 100 CALM      30.02R
JUNEAU         CLOUDY    67  66  97 CALM      30.02S
$$

LSZ147-162-211200-
LAKE SUPERIOR

STATION/POSITION TIME  TEMP    WIND        PRES    WAVE
                       AIR SEA DIR/SP/G            HT/PER
                 (UTC) (F)     (DEG/KT/KT) (MB)    (FT/S)
W MID LAKE BUOY  1050   56 47   CALM  /  2 1013.9F   0
DEVILS ISLAND    1100   64      20/  3/  3 1013.7F
SAXON HARBOR     1030   64     170/  4/  6 1013.2F
$$

LMZ867-665-643>646-211200-
LAKE MICHIGAN

STATION/POSITION TIME  TEMP    WIND        PRES    WAVE
                       AIR SEA DIR/SP/G            HT/PER
                 (UTC) (F)     (DEG/KT/KT) (MB)    (FT/S)
CHAMBERS ISLAND  1040   63     200/  1/  2 1014.6R
S GREEN BAY BUOY 1100   72 72  210/  4/  6 1015.3
N MID LAKE BUOY  1050   67 65  190/  6/  6 1015.3R   1
NORTHPORT PIER   1040   67     170/  4/  5 1014.9R
KEWAUNEE LAKESHO 1054   66     310/  4/  5 1014.9R
SHEBOYGAN LAKESH 1100   71     260/  2/  3 1015.3R
PORT WASHINGTON  1040   72     290/  6/  8 1016.3S
ATWATER BUOY     1009   69 67   10/  4/  4 1015.9R
MILWAUKEE LAKESH 1100   73      10/  3/  4   N/A
S MID LAKE BUOY  1050   72 70  330/  6/  8 1015.6R   0
KENOSHA   LAKESH 1100   70     190/  7/  9 1015.9
$$

TC  - TEMPERATURE IN CELSIUS
VSB - VISIBILITY IN STATUTE MILES
WCI - WIND CHILL INDEX
HX  - HEAT INDEX





USA.gov is the U.S. government's official web portal to all federal, state and local government web resources and services.